Time,TemperatureF,DewpointF,PressureIn,WindDirection,WindDirectionDegrees,WindSpeedMPH,WindSpeedGustMPH,Humidity,HourlyPrecipIn,Conditions,Clouds,dailyrainin,SoftwareType,DateUTC
2013-07-24 00:43:00,70.0,69.0,29.57,South,190,0.0,0.0,97,0.00,,,1.08,,2013-07-24 04:43:00,
2013-07-24 00:52:00,70.0,69.0,29.57,South,190,0.0,0.0,97,0.00,,,1.08,,2013-07-24 04:52:00,
2013-07-24 01:22:00,70.0,69.0,29.57,South,188,0.0,0.0,97,0.00,,,1.08,,2013-07-24 05:22:00,
2013-07-24 01:52:00,70.0,69.0,29.57,South,190,0.0,0.0,97,0.00,,,1.08,,2013-07-24 05:52:00,
2013-07-24 02:01:00,69.0,68.0,29.57,South,191,0.0,0.0,97,0.00,,,1.08,,2013-07-24 06:01:00,
2013-07-24 02:53:00,70.0,69.0,29.57,South,190,0.0,0.0,97,0.00,,,1.08,,2013-07-24 06:53:00,
2013-07-24 03:02:00,70.0,69.0,29.57,South,190,0.0,0.0,97,0.00,,,1.08,,2013-07-24 07:02:00,
2013-07-24 03:32:00,70.0,69.0,29.57,South,191,0.0,0.0,97,0.00,,,1.08,,2013-07-24 07:32:00,
2013-07-24 04:02:00,70.0,69.0,29.57,South,190,0.0,0.0,97,0.00,,,1.08,,2013-07-24 08:02:00,
2013-07-24 04:22:00,70.0,69.0,29.57,South,191,0.0,0.0,97,0.00,,,1.08,,2013-07-24 08:22:00,
2013-07-24 04:32:00,70.0,69.0,29.57,South,190,0.0,0.0,97,0.00,,,1.07,,2013-07-24 08:32:00,
2013-07-24 04:43:00,70.0,69.0,29.56,South,190,0.0,0.0,97,0.00,,,1.07,,2013-07-24 08:43:00,
2013-07-24 04:52:00,70.0,69.0,29.57,South,190,0.0,0.0,97,0.00,,,1.07,,2013-07-24 08:52:00,
2013-07-24 05:02:00,70.0,69.0,29.57,South,188,0.0,0.0,97,0.00,,,1.07,,2013-07-24 09:02:00,
2013-07-24 05:22:00,70.0,69.0,29.58,SSW,197,0.0,0.0,97,0.00,,,1.07,,2013-07-24 09:22:00,
2013-07-24 05:32:00,70.0,69.0,29.57,SSW,197,0.0,0.0,97,0.00,,,1.07,,2013-07-24 09:32:00,
2013-07-24 05:43:00,70.0,69.0,29.58,SSW,197,0.0,0.0,97,0.00,,,1.07,,2013-07-24 09:43:00,
2013-07-24 05:53:00,70.0,69.0,29.58,SSW,197,0.0,0.0,97,0.00,,,1.07,,2013-07-24 09:53:00,
2013-07-24 06:02:00,70.0,69.0,29.57,SSW,198,0.0,0.0,97,0.00,,,1.07,,2013-07-24 10:02:00,
2013-07-24 06:12:00,70.0,69.0,29.57,SSW,197,0.0,0.0,97,0.00,,,1.07,,2013-07-24 10:12:00,
2013-07-24 06:22:00,70.0,69.0,29.57,SSW,197,0.0,0.0,97,0.00,,,1.07,,2013-07-24 10:22:00,
2013-07-24 06:43:00,71.0,70.0,29.57,SSW,197,0.0,0.0,97,0.00,,,1.05,,2013-07-24 10:43:00,
2013-07-24 07:02:00,71.0,70.0,29.59,SSW,197,0.0,0.0,97,0.00,,,1.05,,2013-07-24 11:02:00,
2013-07-24 07:12:00,71.0,70.0,29.58,SSW,201,0.0,0.0,97,0.00,,,1.05,,2013-07-24 11:12:00,
2013-07-24 07:22:00,72.0,71.0,29.59,SW,233,0.0,2.0,97,0.00,,,1.05,,2013-07-24 11:22:00,
2013-07-24 07:43:00,72.0,71.0,29.59,WSW,241,0.0,0.0,97,0.00,,,1.00,,2013-07-24 11:43:00,
2013-07-24 07:52:00,72.0,71.0,29.60,WSW,242,0.0,0.0,97,0.00,,,1.00,,2013-07-24 11:52:00,
2013-07-24 08:02:00,72.0,71.0,29.60,WSW,242,0.0,0.0,97,0.00,,,1.00,,2013-07-24 12:02:00,
2013-07-24 08:32:00,73.0,72.0,29.60,WSW,245,0.0,0.0,97,0.00,,,0.92,,2013-07-24 12:32:00,
2013-07-24 08:52:00,74.0,73.0,29.60,WSW,245,0.0,0.0,97,0.00,,,0.92,,2013-07-24 12:52:00,
2013-07-24 09:32:00,74.0,72.0,29.62,West,277,0.0,5.0,94,0.00,,,0.89,,2013-07-24 13:32:00,
2013-07-24 10:02:00,77.0,72.0,29.63,WSW,241,1.0,4.0,85,0.00,,,0.89,,2013-07-24 14:02:00,
2013-07-24 10:22:00,78.0,72.0,29.63,NW,310,1.0,4.0,83,0.00,,,0.89,,2013-07-24 14:22:00,
2013-07-24 10:32:00,79.0,72.0,29.63,WNW,295,2.0,5.0,80,0.00,,,0.87,,2013-07-24 14:32:00,
2013-07-24 10:43:00,79.0,71.0,29.63,NW,319,1.0,8.0,76,0.00,,,0.87,,2013-07-24 14:43:00,
2013-07-24 10:55:00,80.0,72.0,29.64,WNW,297,2.0,5.0,78,0.00,,,0.87,,2013-07-24 14:55:00,
2013-07-24 11:12:00,81.0,72.0,29.64,South,190,3.0,7.0,74,0.00,,,0.87,,2013-07-24 15:12:00,
2013-07-24 11:33:00,81.0,71.0,29.64,WSW,257,3.0,6.0,72,0.00,,,0.87,,2013-07-24 15:33:00,
2013-07-24 11:43:00,83.0,72.0,29.65,SW,219,2.0,6.0,70,0.00,,,0.87,,2013-07-24 15:43:00,
2013-07-24 12:02:00,84.0,72.0,29.65,WSW,256,2.0,4.0,67,0.00,,,0.87,,2013-07-24 16:02:00,
2013-07-24 12:22:00,85.0,73.0,29.66,WNW,285,2.0,6.0,67,0.00,,,0.87,,2013-07-24 16:22:00,
2013-07-24 12:33:00,83.0,70.0,29.66,WSW,257,3.0,6.0,66,0.00,,,0.87,,2013-07-24 16:33:00,
2013-07-24 12:43:00,83.0,71.0,29.66,South,183,2.0,8.0,68,0.00,,,0.87,,2013-07-24 16:43:00,
2013-07-24 13:03:00,84.0,71.0,29.66,SW,233,2.0,5.0,66,0.00,,,0.87,,2013-07-24 17:03:00,
2013-07-24 13:12:00,84.0,71.0,29.66,SW,229,2.0,5.0,65,0.00,,,0.87,,2013-07-24 17:12:00,
2013-07-24 13:33:00,84.0,70.0,29.65,SSW,204,2.0,6.0,64,0.00,,,0.87,,2013-07-24 17:33:00,
2013-07-24 14:02:00,79.0,72.0,29.66,NNW,335,1.0,2.0,78,0.00,,,0.87,,2013-07-24 18:02:00,
2013-07-24 14:12:00,82.0,73.0,29.66,NNW,342,0.0,0.0,75,0.00,,,0.87,,2013-07-24 18:12:00,
2013-07-24 14:22:00,83.0,74.0,29.66,NE,49,0.0,0.0,74,0.00,,,0.87,,2013-07-24 18:22:00,
2013-07-24 14:33:00,84.0,71.0,29.66,NW,312,3.0,9.0,65,0.00,,,0.08,,2013-07-24 18:33:00,
2013-07-24 14:43:00,84.0,70.0,29.66,SSW,212,2.0,7.0,63,0.00,,,0.08,,2013-07-24 18:43:00,
2013-07-24 14:52:00,84.0,70.0,29.67,South,180,3.0,11.0,62,0.00,,,0.08,,2013-07-24 18:52:00,
2013-07-24 15:02:00,84.0,70.0,29.67,SW,225,2.0,7.0,64,0.00,,,0.08,,2013-07-24 19:02:00,
2013-07-24 15:32:00,83.0,70.0,29.68,NW,317,4.0,10.0,65,0.00,,,0.07,,2013-07-24 19:32:00,
2013-07-24 15:43:00,82.0,70.0,29.69,WNW,291,2.0,7.0,67,0.00,,,0.07,,2013-07-24 19:43:00,
2013-07-24 16:13:00,81.0,69.0,29.70,WSW,252,1.0,7.0,68,0.00,,,0.07,,2013-07-24 20:13:00,
2013-07-24 16:23:00,81.0,69.0,29.70,West,271,1.0,7.0,67,0.00,,,0.07,,2013-07-24 20:23:00,
2013-07-24 16:32:00,81.0,69.0,29.71,NW,319,2.0,10.0,66,0.00,,,0.07,,2013-07-24 20:32:00,
2013-07-24 16:43:00,81.0,69.0,29.71,WNW,302,2.0,3.0,67,0.00,,,0.07,,2013-07-24 20:43:00,
2013-07-24 16:52:00,81.0,69.0,29.71,NNW,345,2.0,5.0,67,0.00,,,0.07,,2013-07-24 20:52:00,
2013-07-24 17:03:00,80.0,68.0,29.71,NW,316,0.0,4.0,68,0.00,,,0.07,,2013-07-24 21:03:00,
2013-07-24 17:12:00,81.0,67.0,29.71,NNW,340,3.0,7.0,62,0.00,,,0.07,,2013-07-24 21:12:00,
2013-07-24 17:32:00,81.0,67.0,29.72,WNW,288,4.0,8.0,62,0.00,,,0.00,,2013-07-24 21:32:00,
2013-07-24 18:02:00,81.0,66.0,29.73,NNW,329,2.0,6.0,61,0.00,,,0.00,,2013-07-24 22:02:00,
2013-07-24 18:12:00,80.0,64.0,29.73,NW,325,3.0,8.0,59,0.00,,,0.00,,2013-07-24 22:12:00,
2013-07-24 18:43:00,78.0,63.0,29.75,NW,317,1.0,5.0,61,0.00,,,0.00,,2013-07-24 22:43:00,
2013-07-24 19:02:00,78.0,66.0,29.76,WSW,257,0.0,1.0,66,0.00,,,0.00,,2013-07-24 23:02:00,
2013-07-24 19:12:00,78.0,66.0,29.76,WSW,257,0.0,1.0,66,0.00,,,0.00,,2013-07-24 23:12:00,
2013-07-24 19:22:00,78.0,67.0,29.76,WSW,257,0.0,0.0,68,0.00,,,0.00,,2013-07-24 23:22:00,
2013-07-24 19:52:00,74.0,66.0,29.78,WSW,257,0.0,0.0,77,0.00,,,0.00,,2013-07-24 23:52:00,
2013-07-24 20:02:00,74.0,66.0,29.79,NW,308,1.0,3.0,77,0.00,,,0.00,,2013-07-25 00:02:00,
2013-07-24 20:12:00,74.0,66.0,29.80,NW,309,0.0,1.0,76,0.00,,,0.00,,2013-07-25 00:12:00,
2013-07-24 20:22:00,74.0,66.0,29.80,NW,309,0.0,1.0,76,0.00,,,0.00,,2013-07-25 00:22:00,
2013-07-24 20:43:00,73.0,64.0,29.82,NNW,347,1.0,2.0,74,0.00,,,0.00,,2013-07-25 00:43:00,
2013-07-24 20:53:00,73.0,64.0,29.82,North,352,1.0,2.0,74,0.00,,,0.00,,2013-07-25 00:53:00,
2013-07-24 22:22:00,70.0,60.0,29.88,NNW,333,1.0,4.0,70,0.00,,,0.00,,2013-07-25 02:22:00,
2013-07-24 22:43:00,69.0,59.0,29.89,NNW,330,2.0,6.0,70,0.00,,,0.00,,2013-07-25 02:43:00,
2013-07-24 23:02:00,68.0,58.0,29.90,NNW,342,2.0,5.0,70,0.00,,,0.00,,2013-07-25 03:02:00,
2013-07-24 23:39:00,67.0,56.0,29.91,NNW,333,2.0,9.0,69,0.00,,,0.00,,2013-07-25 03:39:00,
2013-07-24 23:52:00,66.0,55.0,29.93,North,1,3.0,5.0,68,0.00,,,0.00,,2013-07-25 03:52:00,